Mineral Wells, TX

8:29 PM CDT on April 26, 2017 (GMT -0500)
Mineral Wells

Weather History for KMWL - November, 2012

Change the Weather History Date:

Thursday, November 29, 2012

  Actual Average Record
Temperature  
Mean Temperature 56 °F -  
Max Temperature 72 °F 60 °F 82 °F (2006)
Min Temperature 41 °F 39 °F 27 °F (2001)
Degree Days  
Heating Degree Days 8    
Growing Degree Days 6 (Base 50)    
Moisture  
Dew Point 43 °F    
Average Humidity 64    
Maximum Humidity 86    
Minimum Humidity 38    
Precipitation  
Precipitation 0.00 in - - ()
Sea Level Pressure  
Sea Level Pressure 30.13 in    
Wind  
Wind Speed 10 mph (SSE)    
Max Wind Speed 16 mph    
Max Gust Speed 21 mph    
Visibility 10 miles    
Events      
Averages and records for this station are not official NWS values.
T = Trace of Precipitation, MM = Missing Value Source: NWS Daily Summary

Daily Weather History Graph

Daily Weather History Graph

Search for Another Location

Airport or City:

Trip Planner

Search our weather history database for the weather conditions in past years. The results will help you decide how hot, cold, wet, or windy it might be!

Date:

Astronomy

Nov. 29, 2012 Rise Set
Actual Time 7:15 AM CST 5:25 PM CST
Civil Twilight 6:48 AM CST 5:52 PM CST
Nautical Twilight 6:18 AM CST 6:23 PM CST
Astronomical Twilight 5:48 AM CST 6:52 PM CST
Moon 6:30 PM CST (11/29) 8:02 AM CST (11/29)
Length of Visible Light 11h 04m
Length of Day
10h 10m
Full, 99% of the Moon is Illuminated
Nov 29
Full
Dec 6
Last Quarter
Dec 13
New
Dec 19
First Quarter
Dec 28
Full

Hourly Weather History & Observations

Time (CST) Temp. Windchill Dew Point Humidity Pressure Visibility Wind Dir Wind Speed Gust Speed Precip Events Conditions
12:53 AM 46.0 °F 42.5 °F 36.0 °F 68% 30.21 in 10.0 mi SSE 6.9 mph - N/A   Clear
1:53 AM 43.0 °F 38.2 °F 36.0 °F 76% 30.20 in 10.0 mi SE 8.1 mph - N/A   Clear
2:53 AM 44.1 °F 38.6 °F 36.0 °F 73% 30.19 in 10.0 mi SE 10.4 mph - N/A   Clear
3:53 AM 44.1 °F 38.1 °F 37.0 °F 76% 30.17 in 10.0 mi SE 11.5 mph - N/A   Clear
4:53 AM 43.0 °F 38.8 °F 37.0 °F 80% 30.18 in 10.0 mi SSE 6.9 mph - N/A   Clear
5:53 AM 42.1 °F 37.1 °F 36.0 °F 79% 30.19 in 10.0 mi SSE 8.1 mph - N/A   Clear
6:53 AM 41.0 °F 35.2 °F 37.0 °F 86% 30.19 in 10.0 mi SE 9.2 mph - N/A   Clear
7:53 AM 43.0 °F 37.7 °F 37.9 °F 82% 30.20 in 10.0 mi SE 9.2 mph - N/A   Clear
8:53 AM 46.9 °F - 39.0 °F 74% 30.21 in 10.0 mi SE 8.1 mph - N/A   Clear
9:53 AM 54.0 °F - 42.1 °F 64% 30.21 in 10.0 mi SSE 11.5 mph - N/A   Clear
10:53 AM 61.0 °F - 44.1 °F 54% 30.18 in 10.0 mi South 10.4 mph - N/A   Clear
11:53 AM 66.0 °F - 44.1 °F 45% 30.14 in 10.0 mi SSE 13.8 mph 20.7 mph N/A   Clear
12:53 PM 69.1 °F - 45.0 °F 42% 30.10 in 10.0 mi SSE 15.0 mph 19.6 mph N/A   Clear
1:53 PM 70.0 °F - 44.1 °F 39% 30.06 in 10.0 mi South 13.8 mph - N/A   Clear
2:53 PM 71.1 °F - 44.1 °F 38% 30.05 in 10.0 mi SSE 16.1 mph - N/A   Clear
3:53 PM 72.0 °F - 45.0 °F 38% 30.04 in 10.0 mi SSE 12.7 mph - N/A   Clear
4:53 PM 69.1 °F - 46.0 °F 44% 30.04 in 10.0 mi South 12.7 mph - N/A   Clear
5:53 PM 66.0 °F - 48.0 °F 52% 30.05 in 10.0 mi South 12.7 mph - N/A   Clear
6:53 PM 62.1 °F - 48.0 °F 60% 30.06 in 10.0 mi SSE 8.1 mph - N/A   Clear
7:53 PM 59.0 °F - 48.0 °F 67% 30.07 in 10.0 mi SSE 6.9 mph - N/A   Clear
8:53 PM 57.9 °F - 46.9 °F 67% 30.07 in 10.0 mi SSE 10.4 mph - N/A   Clear
9:53 PM 55.9 °F - 48.0 °F 75% 30.08 in 10.0 mi SSE 9.2 mph - N/A   Clear
10:53 PM 55.0 °F - 48.0 °F 77% 30.07 in 10.0 mi SSE 9.2 mph - N/A   Clear
11:53 PM 55.9 °F - 48.9 °F 77% 30.08 in 10.0 mi SSE 9.2 mph - N/A   Clear